Total_Precipitation_Accumulation
0.09 0.12 0.32 0.44 0.46 0.37 0.27 0.20 0.19 0.19 0.19 0.19 0.19 0.19 0.17 0.17 0.17 0.16 0.18 0.20 0.22 0.28 0.34 0.37 0.41 0.53 0.52 0.38 0.25 0.16 0.12 0.09 0.08 0.08 0.08 0.10 0.12 0.15 0.13 0.12 0.14 0.18 0.24
0.08 0.14 0.32 0.46 0.53 0.45 0.37 0.28 0.20 0.18 0.20 0.22 0.23 0.23 0.22 0.20 0.19 0.21 0.24 0.27 0.30 0.34 0.37 0.40 0.44 0.50 0.47 0.35 0.21 0.10 0.06 0.04 0.02 0.02 0.02 0.03 0.08 0.12 0.09 0.08 0.10 0.18 0.21
0.10 0.17 0.31 0.47 0.56 0.52 0.45 0.37 0.28 0.22 0.22 0.26 0.29 0.29 0.29 0.27 0.25 0.25 0.28 0.32 0.35 0.35 0.36 0.42 0.43 0.42 0.37 0.29 0.18 0.09 0.06 0.04 0.02 0.02 0.02 0.04 0.10 0.13 0.11 0.11 0.15 0.20 0.21
0.13 0.21 0.33 0.46 0.60 0.58 0.52 0.44 0.38 0.35 0.32 0.33 0.36 0.37 0.38 0.34 0.31 0.30 0.30 0.32 0.32 0.30 0.30 0.32 0.30 0.27 0.19 0.15 0.13 0.10 0.08 0.05 0.03 0.03 0.04 0.05 0.11 0.19 0.19 0.18 0.21 0.22 0.22
0.23 0.28 0.43 0.52 0.62 0.64 0.58 0.53 0.49 0.45 0.44 0.42 0.42 0.43 0.47 0.45 0.39 0.36 0.33 0.30 0.27 0.24 0.22 0.22 0.19 0.15 0.11 0.09 0.09 0.09 0.07 0.05 0.04 0.03 0.04 0.06 0.11 0.22 0.21 0.19 0.19 0.20 0.23
0.31 0.35 0.50 0.60 0.66 0.68 0.61 0.56 0.53 0.50 0.49 0.48 0.44 0.44 0.50 0.54 0.50 0.41 0.36 0.29 0.23 0.21 0.19 0.16 0.14 0.12 0.10 0.08 0.07 0.07 0.06 0.05 0.03 0.03 0.05 0.07 0.10 0.20 0.19 0.17 0.17 0.19 0.21
0.42 0.46 0.59 0.73 0.82 0.80 0.73 0.66 0.57 0.55 0.53 0.53 0.48 0.46 0.51 0.56 0.57 0.48 0.37 0.29 0.21 0.18 0.17 0.14 0.12 0.11 0.10 0.09 0.08 0.07 0.05 0.04 0.04 0.04 0.06 0.07 0.11 0.20 0.19 0.17 0.17 0.18 0.19
0.53 0.61 0.74 0.88 0.93 0.93 0.85 0.77 0.71 0.65 0.60 0.58 0.58 0.59 0.57 0.57 0.59 0.50 0.36 0.29 0.26 0.21 0.18 0.16 0.13 0.12 0.11 0.10 0.09 0.08 0.05 0.03 0.03 0.03 0.03 0.04 0.09 0.16 0.17 0.15 0.16 0.17 0.16
0.74 0.81 0.90 0.97 1.01 1.05 0.94 0.84 0.79 0.75 0.70 0.65 0.64 0.66 0.61 0.57 0.55 0.46 0.33 0.28 0.28 0.26 0.21 0.18 0.17 0.15 0.13 0.12 0.11 0.08 0.06 0.03 0.02 0.02 0.03 0.04 0.07 0.12 0.14 0.15 0.17 0.18 0.18
0.95 0.98 0.99 1.01 1.05 1.10 1.06 0.92 0.80 0.73 0.69 0.70 0.68 0.63 0.53 0.48 0.51 0.46 0.30 0.27 0.28 0.27 0.23 0.20 0.17 0.16 0.15 0.12 0.10 0.08 0.06 0.05 0.03 0.03 0.03 0.04 0.07 0.10 0.12 0.15 0.17 0.19 0.19
1.23 1.19 1.12 1.10 1.07 1.09 1.12 1.00 0.92 0.82 0.75 0.71 0.69 0.60 0.53 0.52 0.50 0.45 0.29 0.20 0.23 0.25 0.22 0.21 0.20 0.18 0.16 0.13 0.10 0.06 0.05 0.05 0.04 0.04 0.04 0.04 0.07 0.10 0.11 0.14 0.14 0.15 0.15
1.36 1.34 1.27 1.20 1.19 1.18 1.15 1.13 1.10 0.97 0.86 0.77 0.68 0.66 0.60 0.55 0.54 0.47 0.37 0.23 0.21 0.23 0.23 0.23 0.22 0.23 0.18 0.13 0.10 0.08 0.06 0.05 0.05 0.04 0.04 0.04 0.08 0.11 0.13 0.13 0.11 0.11 0.12
1.53 1.51 1.44 1.35 1.37 1.29 1.18 1.13 1.14 1.03 0.95 0.88 0.80 0.75 0.70 0.64 0.56 0.58 0.49 0.37 0.31 0.23 0.24 0.23 0.23 0.20 0.17 0.16 0.14 0.10 0.08 0.06 0.06 0.05 0.04 0.05 0.07 0.12 0.16 0.18 0.15 0.13 0.14
1.78 1.79 1.63 1.53 1.51 1.45 1.28 1.10 1.04 1.00 0.93 0.87 0.80 0.83 0.81 0.73 0.59 0.53 0.51 0.41 0.36 0.28 0.26 0.25 0.22 0.19 0.16 0.17 0.17 0.13 0.11 0.08 0.06 0.06 0.04 0.03 0.05 0.10 0.16 0.19 0.20 0.18 0.18
2.03 2.03 1.95 1.72 1.59 1.51 1.41 1.25 1.06 0.92 0.82 0.82 0.83 0.79 0.76 0.68 0.58 0.52 0.51 0.49 0.43 0.34 0.28 0.27 0.25 0.22 0.19 0.18 0.17 0.15 0.13 0.11 0.09 0.08 0.05 0.03 0.03 0.06 0.12 0.17 0.21 0.23 0.25
2.18 2.29 2.29 1.99 1.71 1.53 1.43 1.34 1.18 0.99 0.86 0.82 0.82 0.78 0.75 0.69 0.60 0.56 0.50 0.49 0.46 0.42 0.39 0.34 0.30 0.30 0.27 0.24 0.20 0.18 0.18 0.17 0.15 0.13 0.09 0.07 0.05 0.05 0.09 0.15 0.24 0.31 0.35
2.27 2.44 2.49 2.34 2.03 1.65 1.47 1.36 1.26 1.12 1.00 0.90 0.80 0.76 0.77 0.75 0.70 0.65 0.59 0.53 0.50 0.48 0.48 0.45 0.42 0.41 0.36 0.31 0.25 0.23 0.21 0.18 0.16 0.15 0.14 0.12 0.10 0.08 0.07 0.13 0.23 0.33 0.37
2.32 2.44 2.51 2.46 2.30 1.93 1.57 1.42 1.30 1.21 1.11 1.02 0.95 0.89 0.84 0.81 0.79 0.78 0.68 0.59 0.55 0.59 0.57 0.51 0.46 0.45 0.38 0.34 0.29 0.26 0.22 0.20 0.18 0.17 0.16 0.13 0.12 0.10 0.08 0.09 0.15 0.24 0.32
2.19 2.38 2.60 2.51 2.39 2.18 1.89 1.65 1.51 1.35 1.26 1.16 1.02 0.95 0.97 0.94 0.92 0.88 0.73 0.63 0.60 0.61 0.59 0.59 0.55 0.50 0.43 0.37 0.34 0.31 0.27 0.23 0.20 0.18 0.16 0.14 0.12 0.11 0.11 0.10 0.11 0.13 0.20
2.02 2.26 2.45 2.67 2.59 2.55 2.45 2.14 1.80 1.61 1.41 1.30 1.14 1.01 0.99 1.00 1.00 0.99 0.88 0.76 0.73 0.67 0.60 0.58 0.58 0.61 0.57 0.51 0.46 0.38 0.34 0.30 0.26 0.22 0.19 0.17 0.14 0.12 0.12 0.12 0.12 0.11 0.14
1.86 2.08 2.21 2.40 2.57 2.61 2.51 2.20 1.84 1.61 1.54 1.49 1.34 1.21 1.13 1.08 1.06 1.04 1.01 0.92 0.83 0.76 0.68 0.64 0.62 0.63 0.67 0.71 0.69 0.55 0.42 0.35 0.30 0.25 0.22 0.20 0.17 0.15 0.15 0.16 0.18 0.18 0.18
1.63 1.78 2.02 2.08 2.30 2.36 2.29 2.24 2.06 1.95 1.84 1.73 1.63 1.43 1.30 1.25 1.16 1.08 1.02 1.00 0.92 0.85 0.84 0.86 0.83 0.76 0.72 0.76 0.83 0.79 0.63 0.49 0.36 0.27 0.25 0.24 0.23 0.23 0.21 0.20 0.20 0.22 0.24
1.36 1.62 1.74 1.80 2.02 2.23 2.31 2.43 2.51 2.45 2.14 1.87 1.70 1.61 1.49 1.42 1.33 1.21 1.11 1.08 1.06 0.96 0.89 0.94 0.99 0.99 0.98 0.96 0.95 1.08 0.97 0.69 0.50 0.35 0.29 0.27 0.27 0.29 0.29 0.28 0.27 0.27 0.28
1.03 1.36 1.67 1.80 1.93 2.12 2.38 2.39 2.33 2.20 1.98 1.72 1.70 1.75 1.71 1.61 1.51 1.36 1.27 1.21 1.18 1.14 1.07 1.08 1.11 1.16 1.21 1.19 1.14 1.08 1.04 0.90 0.83 0.61 0.38 0.31 0.29 0.27 0.30 0.31 0.30 0.28 0.28
0.86 1.11 1.39 1.64 1.87 2.07 2.19 2.24 2.28 2.14 1.96 1.91 1.83 1.79 1.70 1.59 1.54 1.46 1.40 1.38 1.33 1.31 1.30 1.34 1.33 1.32 1.32 1.31 1.26 1.22 1.21 1.11 0.99 0.93 0.68 0.47 0.43 0.38 0.34 0.33 0.32 0.34 0.35
0.75 0.90 1.14 1.38 1.53 1.74 1.95 2.04 2.09 2.09 2.08 2.03 1.85 1.76 1.75 1.72 1.64 1.54 1.52 1.52 1.52 1.49 1.46 1.44 1.46 1.50 1.49 1.45 1.43 1.35 1.29 1.24 1.11 1.12 1.01 0.76 0.68 0.59 0.52 0.47 0.44 0.43 0.44